Regional Weather Roundup
Issued by NWS

Home | Current Version | Previous Version | Graphics & Text | Print | Product List | Glossary On
Versions: 1 2 3 4 5 6 7 8 9 10 11 12 13 14 15 16 17 18 19 20 21 22 23 24 25 26 27 28 29 30 31 32 33 34 35 36 37 38 39 40 41 42 43 44 45 46 47 48 49 50
000
ASUS45 KBOU 190610
RWRCO

WEATHER ROUNDUP FOR COLORADO
NATIONAL WEATHER SERVICE PUEBLO CO
1200 AM MDT THU APR 19 2018

NOTE: "FAIR" INDICATES FEW OR NO CLOUDS BELOW 12000 FEET WITH NO
SIGNIFICANT WEATHER AND/OR OBSTRUCTIONS TO VISIBILITY.

COZ001>005-013-030-031-190700-
...NORTHWEST COLORADO...

CITY           SKY/WX    TMP DP  RH WIND       PRES   REMARKS
CRAIG          PTCLDY    31  22  69 CALM      30.11F
HAYDEN         MOCLDY    37  18  46 E8        30.13F
MEEKER         PTCLDY    34  22  61 NE8       30.11F WCI  27
RABBIT EARS PA NOT AVBL
STEAMBOAT SPGS FAIR      33  15  47 NW5       30.13F WCI  29
WALDEN         FAIR      27  10  50 SE6       30.20F WCI  20
$$

COZ006>008-011-190700-
...WEST CENTRAL VALLEYS...

CITY           SKY/WX    TMP DP  RH WIND       PRES   REMARKS
GRAND JUNCTION PTCLDY    42  10  27 SE8       30.07F
MONTROSE       CLEAR     39  10  30 S12       30.14S
EAGLE          PTCLDY    33  18  53 CALM      30.17F
RIFLE          PTCLDY    36  23  59 CALM      30.11S
DELTA          NOT AVBL
NUCLA          FAIR      37   0  20 E13       30.14F
$$

COZ017>023-064>068-190700-
...SOUTHWEST COLORADO...

CITY           SKY/WX    TMP DP  RH WIND       PRES   REMARKS
DURANGO        CLEAR     33   1  25 N5        30.18S WCI  29
CORTEZ         CLEAR     32  -2  23 E6        30.12F WCI  26
PAGOSA SPRINGS FAIR      28  -2  28 CALM      30.23S
TELLURIDE      CLEAR     44  -6  12 S7        30.25R
WOLF CREEK PAS CLEAR     28  -9  19 S17G25    30.39R WCI  16
$$

COZ009-010-012-014-032>034-037-058>063-190700-
...CENTRAL COLORADO...

CITY           SKY/WX    TMP DP  RH WIND       PRES   REMARKS
ASPEN          CLEAR     31  16  54 SW3       30.15F
BUENA VISTA    FAIR      32  -2  23 E3        30.29S
COPPER MTN     NOT AVBL
BERTHOUD PASS  FAIR      16   5  62 S28G35    30.30S WCI  -4
COTTONWOOD PAS CLEAR     36   0  21 SE18G25   30.31R
GUNNISON       CLEAR     33  11  39 N5        30.21R WCI  29
KREMMLING      CLEAR     34  18  51 CALM      30.20F
LEADVILLE      CLEAR     28   4  35 S10       30.26R WCI  19
MONARCH PASS   CLEAR     25  -4  28 S9G16     30.45S WCI  15
SALIDA         FAIR      38  -2  18 SE6       30.36R
SUNLIGHT       PTCLDY    23  12  63 SE5       30.27F WCI  17
WILKERSON PASS MOCLDY    23  -4  30 SW9G17    30.35S WCI  13
$$

COZ069>075-190700-
...SAN LUIS VALLEY/SANGRE DE CRISTO MOUNTAINS...

CITY           SKY/WX    TMP DP  RH WIND       PRES   REMARKS
ALAMOSA        CLEAR     32   6  33 SE10      30.24R WCI  24
DEL NORTE      FAIR      31   2  29 W6        30.26R WCI  25
LA VETA PASS   CLEAR     28   3  34 S17       30.42F WCI  16
SAGUACHE       NOT AVBL
$$

COZ035-036-038>040-190700-
...NORTHERN COLORADO FRONT RANGE...

CITY           SKY/WX    TMP DP  RH WIND       PRES   REMARKS
DENVER INTL AP PTCLDY    30  14  51 SE13      30.27R WCI  20
DMNS CITY PARK NOT AVBL
AURORA         CLEAR     32  14  48 SE9       30.27S WCI  24
FRONT RANGE AP FAIR      36  17  45 SE13      30.29R
ERIE MUNI ARPT FAIR      38  14  37 CALM      30.33S
BOULDER MUN AP FAIR      37  16  41 N5        30.27R
CENTENNIAL     CLEAR     37  12  35 S13       30.27S
BROOMFIELD     CLEAR     43  14  31 E10       30.28R
LOVELAND       CLEAR     40  16  37 CALM      30.30R
LONGMONT       FAIR      41  15  35 N3        30.30S
$$

COZ041-046-047-076>085-087-088-190700-
...PIKES PEAK/PALMER DIVIDE AND SOUTHERN FOOTHILLS...

CITY           SKY/WX    TMP DP  RH WIND       PRES   REMARKS
COLO. SPRINGS  CLEAR     37   9  31 SE5       30.31R
A. F. ACADEMY  CLEAR     37   3  24 SE9       30.30R
SCHRIEVER AFB  NOT AVBL
CHEYENNE MTN   NOT AVBL
ELLICOTT         N/A    N/A N/A N/A SE12      30.29S
FALCON         FAIR      32   9  38 SE7       30.32R WCI  25
FORT CARSON    CLEAR     40   1  19 S6        30.30R
LIMON          PTCLDY    31  16  54 CALM      30.30S
MONUMENT HILL  CLEAR     28  12  50 SE9       30.31R WCI  20
CANON CITY     FAIR      41   5  22 NE10      30.28S
WALSENBURG     FAIR      37   3  23 CALM      30.27S
TRINIDAD       CLEAR     39   5  24 SE12      30.28S
$$

COZ042>045-048>051-090-091-190700-
...NORTHEAST COLORADO...

CITY           SKY/WX    TMP DP  RH WIND       PRES   REMARKS
GREELEY ARPT   CLEAR     32  16  51 NE6       30.29R WCI  26
AKRON          CLEAR     40  20  44 SE6       30.28S
BURLINGTON     CLEAR     27  19  72 SW6       30.30R WCI  20
WRAY           FAIR      34  25  69 E3        30.30R
YUMA           NOT AVBL
STERLING       FAIR      32  21  64 N3        30.27S
HOLYOKE        FAIR      34  27  75 E7        30.30R WCI  28
FORT MORGAN    FAIR      36  15  42 CALM      30.29R
$$

COZ086-089-092>099-190700-
...SOUTHEAST COLORADO...

CITY           SKY/WX    TMP DP  RH WIND       PRES   REMARKS
PUEBLO         CLEAR     38   6  26 NE9       30.28R
LA JUNTA       CLEAR     40  11  30 E8        30.29R
LAMAR          CLEAR     36  15  42 S5        30.28S
SPRINGFIELD      N/A     30   8  39 CALM      30.30R
$$




USA.gov is the U.S. government's official web portal to all federal, state and local government web resources and services.